Ardmore, OK

7:09 AM CDT on July 26, 2017 (GMT -0500)
Ardmore Municipal

Weather History for KADM - January, 2014

Change the Weather History Date:

Saturday, January 18, 2014

  Actual Average Record
Temperature  
Mean Temperature 46 °F -  
Max Temperature 66 °F 51 °F 73 °F (2015)
Min Temperature 27 °F 32 °F 14 °F (2008)
Degree Days  
Heating Degree Days 18    
Moisture  
Dew Point 25 °F    
Average Humidity 60    
Maximum Humidity 90    
Minimum Humidity 26    
Precipitation  
Precipitation 0.00 in - - ()
Sea Level Pressure  
Sea Level Pressure 30.11 in    
Wind  
Wind Speed 3 mph (West)    
Max Wind Speed 18 mph    
Max Gust Speed 26 mph    
Visibility 10 miles    
Events      
Averages and records for this station are not official NWS values.
T = Trace of Precipitation, MM = Missing Value Source: NWS Daily Summary

Daily Weather History Graph

Daily Weather History Graph

Search for Another Location

Airport or City:

Trip Planner

Search our weather history database for the weather conditions in past years. The results will help you decide how hot, cold, wet, or windy it might be!

Date:

Astronomy

Jan. 18, 2014 Rise Set
Actual Time 7:33 AM CST 5:44 PM CST
Civil Twilight 7:06 AM CST 6:11 PM CST
Nautical Twilight 6:35 AM CST 6:42 PM CST
Astronomical Twilight 6:05 AM CST 7:12 PM CST
Moon 8:18 PM CST (1/18) 8:41 AM CST (1/18)
Length of Visible Light 11h 05m
Length of Day
10h 11m
Waning Gibbous, 94% of the Moon is Illuminated
Jan 18
Waning Gibbous
Jan 23
Last Quarter
Jan 30
New
Feb 6
First Quarter
Feb 14
Full

Hourly Weather History & Observations

Time (CST) Temp. Windchill Dew Point Humidity Pressure Visibility Wind Dir Wind Speed Gust Speed Precip Events Conditions
12:15 AM 31.3 °F - 24.4 °F 76% 30.14 in 10.0 mi Calm Calm - N/A   Clear
12:35 AM 31.1 °F - 24.4 °F 76% 30.13 in 10.0 mi Calm Calm - N/A   Clear
12:55 AM 32.0 °F - 25.0 °F 75% 30.13 in 10.0 mi Calm Calm - N/A   Clear
1:15 AM 33.1 °F - 23.7 °F 68% 30.12 in 10.0 mi Calm Calm - N/A   Clear
1:35 AM 34.0 °F - 23.2 °F 65% 30.12 in 10.0 mi Calm Calm - N/A   Clear
1:55 AM 32.2 °F - 22.8 °F 68% 30.12 in 10.0 mi Calm Calm - N/A   Clear
2:15 AM 32.0 °F - 22.6 °F 68% 30.12 in 10.0 mi Calm Calm - N/A   Clear
2:35 AM 34.3 °F - 22.1 °F 61% 30.12 in 10.0 mi Calm Calm - N/A   Clear
2:55 AM 33.6 °F - 22.1 °F 63% 30.13 in 10.0 mi Calm Calm - N/A   Clear
3:15 AM 31.8 °F - 22.6 °F 69% 30.13 in 10.0 mi Calm Calm - N/A   Clear
3:35 AM 31.5 °F - 21.7 °F 67% 30.12 in 7.0 mi Calm Calm - N/A   Clear
3:55 AM 30.0 °F - 22.6 °F 74% 30.12 in 10.0 mi Calm Calm - N/A   Clear
4:15 AM 30.0 °F - 22.3 °F 73% 30.11 in 10.0 mi Calm Calm - N/A   Clear
4:35 AM 28.2 °F - 24.8 °F 87% 30.11 in 10.0 mi Calm Calm - N/A   Clear
4:55 AM 27.1 °F - 24.4 °F 90% 30.10 in 7.0 mi Calm Calm - N/A   Clear
5:15 AM 27.9 °F - 23.5 °F 84% 30.10 in 10.0 mi Calm Calm - N/A   Clear
5:35 AM 28.8 °F 25.0 °F 22.5 °F 77% 30.09 in 10.0 mi SSW 3.5 mph - N/A   Clear
6:55 AM 33.8 °F 29.6 °F 23.0 °F 65% 30.09 in 10.0 mi SW 4.6 mph - N/A   Clear
7:55 AM 32.0 °F - 23.0 °F 69% 30.09 in 10.0 mi Calm Calm - N/A   Clear
8:55 AM 39.2 °F 35.9 °F 28.4 °F 65% 30.10 in 10.0 mi WSW 4.6 mph - N/A   Clear
9:55 AM 48.2 °F - 28.4 °F 46% 30.10 in 10.0 mi SW 11.5 mph - N/A   Clear
10:55 AM 57.2 °F - 30.2 °F 36% 30.09 in 10.0 mi West 18.4 mph 26.5 mph N/A   Clear
11:55 AM 60.8 °F - 32.0 °F 34% 30.07 in 10.0 mi West 16.1 mph 24.2 mph N/A   Clear
12:55 PM 62.6 °F - 32.0 °F 32% 30.03 in 10.0 mi West 16.1 mph - N/A   Clear
1:55 PM 66.2 °F - 30.2 °F 26% 30.00 in 10.0 mi West 12.7 mph 20.7 mph N/A   Clear
2:55 PM 66.2 °F - 30.2 °F 26% 30.00 in 10.0 mi West 15.0 mph - N/A   Clear
3:55 PM 66.2 °F - 30.2 °F 26% 29.99 in 10.0 mi West 15.0 mph - N/A   Clear
10:35 PM 46.6 °F - 26.4 °F 45% 30.20 in 10.0 mi NNW 5.8 mph - N/A   Clear
10:55 PM 45.1 °F 40.8 °F 26.1 °F 47% 30.19 in 10.0 mi North 8.1 mph - N/A   Clear
11:15 PM 45.3 °F 42.3 °F 26.6 °F 48% 30.20 in 10.0 mi North 5.8 mph - N/A   Scattered Clouds
11:35 PM 43.5 °F 39.4 °F 25.5 °F 49% 30.19 in 10.0 mi North 6.9 mph - N/A   Scattered Clouds
11:55 PM 43.2 °F 39.7 °F 25.7 °F 50% 30.20 in 10.0 mi North 5.8 mph - N/A   Scattered Clouds